Location: Julian California
(33.0790°N, 116.6010°W)
Time: 02:23:59
(UTC-07:00)

YAOGAN 6 - Pass Details

Date: 19 May 2017
Orbit: 469 x 507 km, 97.1° (Epoch: 16 October)

Event Time Altitude Azimuth Distance (km) Brightness Sun altitude
Exits shadow 21:48:25 33° 237° (WSW) 801 3.7 -22.5°
Maximum altitude 21:49:01 36° 262° (W) 756 3.7 -22.6°
Drops below altitude 10° 21:52:16 10° 330° (NNW) 1,630 6.3 -23.1°
Sets 21:54:26 0° 339° (NNW) 2,510 7.3 -23.4°
